WGS F7 (USA 263)

Last updated on Sun Apr 12 2026 00:02:53 GMT+0000 (Coordinated Universal Time)

1 40746U 15036A 26100.80461250 .00000019 00000+0 00000+0 0 9999 2 40746 0.0156 227.8180 0001179 256.3909 179.4585 1.00271960 39192
UTC large
Height (km)
Speed (km/s)
/
Latitude / Longitude
Inclination (degrees)
Orbital Period (minutes)
Azimuth
Elevation
Range (km)
Doppler Factor

Next 0 passes for location: London (51.5072 / 0.1276)

Sorry there are no passes over London.
WGS F7 (USA 263)